#timestamp,LO_Frequency,Hit,StdDev 
1584867615.2,286047002.2,N
1584867635.1,286046998.1,N
1584867636.0,286046998.1,N
1584867655.8,286047004.3,N
1584867675.6,286047003.5,N
1584867695.5,286047003.5,N
1584867715.3,286047003.8,N
1584867735.1,286047002.5,N
1584867755.9,286047002.3,N
1584867775.7,286047006.0,N
1584867795.6,286047003.1,N
1584867815.4,286047005.7,N
1584867835.2,286047004.8,N
1584867855.1,286047001.6,N
1584867856.0,286047001.6,N
1584867875.8,286047003.4,N
1584867895.7,286047003.8,N
1584867915.5,286047003.7,N
1584867935.3,286047004.0,N
1584867955.2,286047001.6,N
1584867975.0,286047001.5,N
1584867975.9,286047001.5,N
1584867995.8,286047001.9,N
1584868015.6,286047000.2,N
1584868035.4,286047000.1,N
1584868055.3,286047002.4,N
1584868075.1,286047000.7,N
1584868095.8,286046998.1,N
1584868115.7,286047000.1,N
1584868135.5,286046999.8,N
1584868155.4,286047002.7,N
1584868175.2,286047000.7,N
1584868195.0,286047000.7,N
1584868195.9,286047000.7,N
1584868215.8,286047001.0,N
1584868235.6,286047000.0,N
1584868255.5,286047000.8,N
1584868275.3,286047001.0,N
1584868295.1,286047002.6,N
1584868315.9,286047002.7,N
1584868335.7,286047000.7,N
1584868355.5,286046998.9,N
1584868375.4,286046996.5,N
1584868395.2,286046997.1,N
1584868415.1,286046997.9,N
1584868416.0,286046997.9,N
1584868435.8,286046995.0,N
1584868455.6,286046997.2,N
1584868475.5,286046997.7,N
1584868495.3,286046997.9,N
1584868515.2,286046996.1,N
1584868535.9,286046995.5,N
1584868555.7,286046993.8,N
1584868575.6,286046994.5,N
1584868595.4,286046992.4,Y
1584868615.2,286046991.7,P
1584868635.1,286046992.3,N
1584868636.0,286046992.3,N
1584868655.9,286046992.2,N
1584868675.7,286046992.1,N
1584868695.6,286046993.9,N
1584868715.4,286046993.9,N
1584868735.2,286046995.7,N
1584868755.1,286046995.7,N
1584868756.0,286046995.7,N
1584868775.8,286046996.2,N
1584868795.7,286046995.2,N
1584868815.5,286046995.0,N
1584868835.3,286046995.1,N
1584868855.2,286046998.0,N
1584868875.0,286046995.8,N
1584868875.9,286046995.8,N
1584868895.7,286046997.9,N
1584868915.6,286046994.9,N
1584868935.4,286046996.8,N
1584868955.3,286046997.1,N
1584868975.1,286046997.9,N
1584868995.8,286046995.1,N
1584869015.7,286046997.2,N
1584869035.5,286046996.4,N
1584869055.4,286046995.6,N
1584869075.2,286046995.9,N
1584869095.0,286046995.7,N
1584869095.9,286046995.7,N
1584869115.8,286046995.7,N
1584869135.6,286046995.6,N
1584869155.5,286046993.5,Y
1584869175.3,286046999.9,P
1584869195.1,286047001.7,N
1584869215.9,286047001.9,N
1584869235.7,286047000.1,N
1584869255.5,286046999.9,N
1584869275.4,286047002.7,N
1584869295.2,286047000.7,N
1584869315.1,286046999.8,N
1584869316.0,286046999.8,N
1584869335.8,286047000.5,N
1584869355.6,286047002.6,N
1584869375.5,286047001.7,N
1584869395.3,286047001.5,N
1584869415.1,286047004.1,N
1584869435.9,286047001.6,N
1584869455.7,286047001.4,N
1584869475.6,286047002.9,N
1584869495.4,286047003.0,N
1584869515.2,286047003.5,N
1584869535.1,286047004.4,N
1584869536.0,286047004.4,N
1584869555.8,286047004.3,N
1584869575.7,286047003.9,N
1584869595.5,286047004.1,N
1584869615.3,286047002.1,N
1584869635.2,286047002.8,N
1584869655.0,286047001.9,N
1584869655.9,286047001.9,N
1584869675.8,286047003.7,N
1584869695.6,286047003.0,N
1584869715.4,286047003.3,N
1584869735.3,286047001.4,N
1584869755.1,286047001.7,N
1584869775.8,286046999.7,N
1584869795.7,286047000.1,N
1584869815.5,286047003.5,N
1584869835.4,286047004.3,N
1584869855.2,286047001.7,N
1584869875.0,286047003.0,N
1584869875.9,286047003.0,N
1584869895.8,286047005.3,Y
1584869915.6,286047005.8,P
1584869935.5,286047004.3,N
1584869955.3,286047002.0,N
1584869975.1,286047002.2,N
1584869995.9,286047004.1,N
1584870015.7,286047005.9,Y
1584870035.5,286046998.1,P
1584870055.4,286046998.5,N
1584870075.2,286047001.6,N
1584870095.1,286047002.1,N
1584870096.0,286047002.1,N
1584870115.8,286047001.3,N
1584870135.6,286046998.1,N
1584870155.5,286046998.8,N
1584870175.3,286047000.5,N
1584870195.2,286047000.0,N
1584870215.9,286047001.5,N
1584870235.7,286047000.5,N
1584870255.6,286047000.0,N
1584870275.4,286047000.5,N
1584870295.2,286047002.2,N
1584870315.1,286047001.6,N
1584870316.0,286047001.6,N
1584870335.8,286047001.6,N
1584870355.7,286047003.8,N
1584870375.5,286047002.8,N
1584870395.3,286046996.5,N
1584870415.2,286047000.8,N
1584870435.0,286047000.3,N
1584870435.9,286047000.3,N
1584870455.8,286046998.7,N
1584870475.6,286046996.7,N
1584870495.4,286047002.8,N
1584870515.3,286047000.1,N
1584870535.1,286047000.1,N
1584870555.9,286047001.8,N
1584870575.7,286047002.3,N
1584870595.5,286047000.3,N
1584870615.4,286047000.8,N
1584870635.2,286047001.2,N
1584870655.0,286046998.6,N
1584870655.9,286046998.6,N
1584870675.8,286047001.1,N
1584870695.6,286047003.7,N
1584870715.5,286047017.0,Y
1584870735.3,286047018.6,P
1584870755.1,286047016.5,N
1584870775.9,286047011.1,N
1584870795.7,286047009.6,N
1584870815.6,286047006.6,N
1584870835.4,286047003.2,N
1584870855.2,286047002.0,N
1584870875.1,286047003.9,N
1584870876.0,286047003.9,N
1584870895.8,286047007.0,N
1584870915.7,286047005.9,N
1584870935.5,286047002.6,N
1584870955.3,286047000.2,N
1584870975.2,286047001.2,N
1584870995.0,286046996.7,N
1584870995.9,286046996.7,N
1584871015.7,286046996.8,N
1584871035.6,286046997.3,N
1584871055.4,286046996.1,N
1584871075.3,286046993.5,N
1584871095.1,286046994.1,N
1584871096.0,286046994.1,N
1584871115.8,286047001.9,N
1584871135.7,286047004.0,N
1584871155.5,286047003.9,N
1584871175.4,286046998.6,N
1584871195.2,286046995.3,N
